www.pogodaiklimat.ru

Погода и климат >> Архив погоды >> Ирландия >> Mace Head


ПОГОДА в Mace Head

  • Прогноз погоды в Mace Head
  • Монитор погоды в Mace Head
  • Климат города

АРХИВ ПОГОДЫ в Mace Head

Время (UTC), дата Ветер
(напр.,м/с)
 
Видим.   Явления Облачность Т
(С)
Тd
(С)
f
(%)
Тe
(С)
Тes
(С)
Комфортность P
(гПа)
Po
(гПа)
Тmin
(С)
Tmax
(С)
R
(мм)
R24
(мм)
S
(см)
01 8.08 СЗ 7 29 км н/о +13.4 +9.7 78 +11 +11 1006.8 1004.0
02 8.08 З 8 25 км н/о +13.4 +9.0 75 +11 +11 1006.7 1004.0
03 8.08 З 8 9000 м слаб. ливневой дождь н/о +12.9 +10.6 86 +10 +10 1007.2 1004.4
04 8.08 СЗ 6 23 км н/о +13.2 +10.1 81 +11 +11 1007.4 1004.6
05 8.08 СЗ 9 20 км в посл. час дождь {ливн. осадки} н/о +13.1 +9.3 78 +10 +10 1007.5 1004.7
06 8.08 З 9 19 км {ливн. осадки} н/о +13.5 +8.5 72 +11 +11 1008.2 1005.4 +12.4 0.4
07 8.08 СЗ 9 18 км н/о +13.9 +8.5 70 +11 +11 1008.5 1005.7
08 8.08 З 9 35 км н/о +13.9 +7.4 65 +11 +11 1009.1 1006.3
09 8.08 З 10 23 км н/о +13.9 +8.1 68 +11 +11 1009.5 1006.8
10 8.08 З 10 27 км н/о +14.9 +8.5 66 +13 +13 1010.0 1007.3
11 8.08 З 9 21 км н/о +14.5 +8.9 69 +12 +12 1010.4 1007.6
12 8.08 З 11 28 км н/о +15.0 +8.0 63 +13 +13 1010.8 1008.0
13 8.08 З 10 16 км н/о +15.4 +8.2 62 +13 +13 1011.2 1008.4
14 8.08 З 11 21 км н/о +14.2 +8.7 69 +11 +11 1011.7 1008.9
15 8.08 З 7 22 км н/о +14.3 +7.9 65 +12 +12 1011.9 1009.1
16 8.08 З 9 24 км н/о +14.8 +7.1 60 +13 +13 1011.9 1009.1
17 8.08 З 8 26 км н/о +15.1 +7.6 61 +13 +13 1012.0 1009.2
18 8.08 З 12 14 км слаб. ливневой дождь н/о +12.3 +8.0 75 +8 +8 1012.4 1009.6 +15.8 0.0
19 8.08 З 6 35 км в посл. час дождь {ливн. осадки} н/о +13.0 +6.9 66 +11 +11 1012.5 1009.7
20 8.08 ЮЗ 9 24 км слаб. ливневой дождь н/о +12.2 +8.5 78 +9 +9 1012.8 1010.0
21 8.08 ЮЗ 5 35 км в посл. час дождь {ливн. осадки} н/о +11.9 +7.7 75 +9 +9 1012.6 1009.8
22 8.08 ЮЗ 9 30 км слаб. ливневой дождь н/о +12.4 +7.1 70 +9 +9 1012.2 1009.4
23 8.08 ЮЗ 9 35 км в посл. час морось н/о +13.2 +7.6 69 +10 +10 1011.8 1009.0
00 9.08 ЮЗ 9 28 км {ливн. осадки, морось} н/о +13.0 +8.2 73 +10 +10 1011.7 1009.0 0.3
01 9.08 З 8 20 км в посл. час дождь {ливн. осадки} н/о +12.7 +8.7 77 +10 +10 1011.5 1008.7
02 9.08 З 7 17 км слаб. ливневой дождь н/о +12.5 +9.2 80 +10 +10 1011.4 1008.6
03 9.08 З 8 22 км {ливн. осадки} н/о +12.8 +8.7 76 +10 +10 1011.5 1008.7
04 9.08 З 6 30 км в посл. час дождь {ливн. осадки} н/о +12.3 +8.3 77 +10 +10 1011.6 1008.8
05 9.08 З 6 3700 м сильн. ливневой дождь н/о +11.3 +8.5 83 +8 +8 1011.9 1009.1
06 9.08 З 7 30 км в посл. час дождь {ливн. осадки} н/о +12.6 +9.0 79 +10 +10 1012.0 1009.2 +11.3 3
07 9.08 З 5 30 км н/о +12.7 +8.7 77 +11 +11 1012.3 1009.5
08 9.08 З 7 35 км н/о +14.1 +8.6 69 +12 +12 1012.6 1009.8
09 9.08 З 8 22 км слаб. ливневой дождь н/о +12.9 +9.5 80 +10 +10 1013.0 1010.2
10 9.08 З 7 40 км в посл. час дождь {ливн. осадки} н/о +14.1 +8.3 68 +12 +12 1013.1 1010.3
11 9.08 З 7 30 км н/о +15.2 +9.3 68 +13 +13 1013.1 1010.4
12 9.08 З 9 30 км {ливн. осадки} н/о +14.4 +8.9 70 +12 +12 1013.5 1010.7 0.5
13 9.08 З 8 27 км н/о +14.8 +8.6 66 +13 +13 1013.7 1010.9
14 9.08 З 8 27 км в посл. час морось н/о +14.8 +8.3 65 +13 +13 1013.9 1011.2
15 9.08 З 8 30 км {морось} н/о +15.5 +8.7 64 +14 +14 1013.9 1011.2
16 9.08 З 8 26 км н/о +14.7 +9.2 70 +13 +13 1014.2 1011.5
17 9.08 З 7 35 км н/о +15.9 +9.5 66 +14 +14 1014.1 1011.3
18 9.08 З 5 30 км в посл. час морось н/о +14.6 +8.6 67 +13 +13 1014.5 1011.7 +16.0 0.5
19 9.08 З 7 40 км н/о +14.1 +8.2 68 +12 +12 1014.5 1011.7
20 9.08 З 7 40 км н/о +13.8 +7.9 68 +12 +12 1014.5 1011.7
21 9.08 З 6 45 км н/о +13.8 +7.8 67 +12 +12 1014.6 1011.8
22 9.08 З 5 50 км н/о +13.8 +7.8 67 +12 +12 1014.8 1012.0
23 9.08 З 4 45 км н/о +13.7 +7.8 68 +12 +12 1014.9 1012.1
00 10.08 З 6 45 км н/о +13.6 +8.4 71 +11 +11 1014.8 1012.0
01 10.08 З 7 45 км н/о +13.6 +8.6 72 +11 +11 1014.8 1012.0
02 10.08 СЗ 5 35 км слаб. дождь н/о +11.6 +9.2 85 +9 +9 1015.0 1012.2
03 10.08 З 7 40 км слаб. ливневой дождь н/о +12.3 +8.0 75 +9 +9 1014.6 1011.8
04 10.08 СЗ 6 50 км в посл. час морось {ливн. осадки} н/о +12.1 +8.4 78 +9 +9 1014.8 1012.0
05 10.08 С 5 35 км слаб. ливневой дождь н/о +11.0 +8.5 85 +8 +8 1015.3 1012.5
06 10.08 СЗ 5 45 км {ливн. осадки, дождь} н/о +12.0 +8.5 79 +10 +10 1015.9 1013.1 +10.9 1
07 10.08 СЗ 4 35 км н/о +12.9 +9.1 78 +11 +11 1016.3 1013.5
08 10.08 СЗ 5 30 км н/о +14.2 +8.5 69 +13 +13 1016.8 1014.0
09 10.08 СЗ 6 40 км н/о +14.8 +8.4 65 +13 +13 1017.3 1014.5
10 10.08 СЗ 6 35 км н/о +14.2 +8.3 68 +12 +12 1017.8 1015.0
11 10.08 З 6 40 км н/о +15.8 +8.6 62 +14 +14 1018.3 1015.6
12 10.08 З 6 30 км н/о +16.5 +8.9 61 +15 +15 1018.7 1015.9
13 10.08 З 6 30 км н/о +16.3 +8.2 59 +15 +15 1019.1 1016.3
14 10.08 З 6 30 км н/о +16.2 +7.6 57 +15 +15 1019.5 1016.7
15 10.08 З 6 30 км н/о +16.5 +8.9 61 +15 +15 1019.6 1016.8
16 10.08 З 6 40 км н/о +16.2 +8.7 61 +15 +15 1019.8 1017.0
17 10.08 З 5 40 км н/о +15.7 +8.3 61 +15 +15 1019.9 1017.1
18 10.08 З 4 35 км н/о +15.1 +8.0 63 +14 +14 1020.1 1017.3 +16.8
19 10.08 З 3 35 км н/о +14.6 +7.9 64 +14 +14 1020.0 1017.2
20 10.08 З 2 45 км н/о +13.9 +7.6 66 +13 +13 1020.2 1017.4
21 10.08 штиль 0 50 км н/о +13.2 +7.6 69 +13 +13 1020.4 1017.6
22 10.08 В 1 40 км н/о +10.7 +7.4 80 +10 +10 1020.4 1017.6
23 10.08 В 2 35 км н/о +9.9 +7.1 83 +8 +8 1020.1 1017.2
00 11.08 В 3 40 км н/о +9.6 +7.6 87 +7 +7 1019.6 1016.8
01 11.08 В 4 30 км н/о +10.0 +7.9 87 +7 +7 1019.0 1016.2
02 11.08 В 5 45 км н/о +9.9 +7.9 87 +7 +7 1018.3 1015.4
03 11.08 В 5 50 км н/о +10.2 +7.9 86 +7 +7 1017.6 1014.7
04 11.08 В 6 50 км н/о +10.8 +8.7 87 +8 +8 1016.7 1013.9
05 11.08 В 6 50 км н/о +11.4 +8.9 85 +8 +8 1015.8 1013.0
06 11.08 В 6 50 км н/о +12.2 +9.4 83 +9 +9 1015.0 1012.1 +9.2
07 11.08 В 7 50 км н/о +13.1 +10.1 82 +10 +10 1014.2 1011.4
08 11.08 В 7 24 км слаб. ливневой дождь н/о +13.9 +12.2 89 +12 +12 1013.6 1010.8
09 11.08 ЮВ 9 45 км в посл. час морось {ливн. осадки} н/о +15.6 +13.2 86 +14 +14 1012.6 1009.9
10 11.08 ЮВ 10 25 км н/о +16.4 +14.1 86 +15 +15 1011.6 1008.8
11 11.08 ЮВ 8 45 км н/о +18.1 +15.3 84 +17 +17 1010.8 1008.0
12 11.08 ЮВ 8 5000 м слаб. ливневой дождь {морось} н/о +17.8 +16.2 90 +17 +17 1009.7 1007.0 0.0
13 11.08 ЮВ 8 45 км слаб. ливневой дождь н/о +18.9 +16.8 88 +19 +19 1009.1 1006.3
14 11.08 ЮВ 7 11 км слаб. ливневой дождь н/о +18.6 +16.8 89 +19 +19 1008.4 1005.6
15 11.08 Ю 5 12 км слаб. ливневой дождь н/о +17.6 +16.6 94 +17 +17 1007.6 1004.8
16 11.08 Ю 7 3200 м слаб. ливневой дождь н/о +17.2 +16.3 94 +16 +16 1007.3 1004.5
17 11.08 Ю 6 2800 м сильн. морось {дождь} н/о +17.1 +16.4 96 +16 +16 1006.8 1004.0
18 11.08 Ю 8 2500 м слаб. ливневой дождь н/о +16.5 +15.8 96 +15 +15 1006.6 1003.8 +19.3 3
19 11.08 ЮЗ 7 8000 м сильн. морось н/о +16.0 +15.3 96 +14 +14 1006.5 1003.7
20 11.08 ЮЗ 7 2700 м слаб. ливневой дождь н/о +15.2 +14.5 96 +13 +13 1006.6 1003.8
21 11.08 ЮЗ 5 11 км в посл. час морось {ливн. осадки} н/о +14.7 +14.0 96 +13 +13 1006.9 1004.1
22 11.08 ЮЗ 7 19 км н/о +14.5 +13.3 93 +12 +12 1006.8 1004.0
23 11.08 З 6 20 км н/о +14.7 +12.5 87 +13 +13 1006.8 1004.1
00 12.08 ЮЗ 5 23 км {ливн. осадки, морось} н/о +14.5 +11.9 84 +13 +13 1006.6 1003.9 0.4
01 12.08 ЮЗ 3 28 км н/о +14.5 +11.8 84 +14 +14 1006.2 1003.5
02 12.08 ЮЗ 3 30 км н/о +14.3 +11.7 84 +13 +13 1005.7 1002.9
03 12.08 ЮЗ 4 21 км н/о +14.5 +12.3 87 +13 +13 1005.3 1002.5
04 12.08 Ю 4 18 км н/о +14.8 +12.9 88 +14 +14 1005.0 1002.2
05 12.08 Ю 4 24 км н/о +15.0 +13.3 90 +14 +14 1005.0 1002.2
06 12.08 Ю 2 3400 м морось н/о +14.8 +13.2 90 +14 +14 1005.2 1002.5 +14.2 0.5
07 12.08 Ю 4 14 км в посл. час дождь н/о +14.5 +13.4 93 +13 +13 1005.4 1002.6
08 12.08 ЮВ 3 30 км в посл. час морось {ливн. осадки} н/о +15.1 +14.1 94 +14 +14 1005.4 1002.7
09 12.08 Ю 3 27 км в посл. час морось {ливн. осадки, дождь} н/о +15.8 +14.7 93 +15 +15 1005.6 1002.9
10 12.08 ЮВ 3 3500 м морось н/о +15.5 +14.2 92 +15 +15 1005.9 1003.2
11 12.08 Ю 3 30 км в посл. час морось н/о +16.8 +15.4 91 +17 +17 1005.9 1003.2
12 12.08 Ю 3 35 км {ливн. осадки, дождь} н/о +17.4 +14.7 84 +17 +17 1006.1 1003.4 0.8
13 12.08 ЮЗ 3 30 км н/о +17.0 +14.0 82 +17 +17 1006.0 1003.3
14 12.08 З 3 40 км н/о +17.1 +14.3 84 +17 +17 1006.1 1003.4
15 12.08 З 3 40 км н/о +17.2 +13.7 80 +17 +17 1006.1 1003.4
16 12.08 З 3 22 км н/о +17.8 +14.0 78 +18 +18 1006.0 1003.3
17 12.08 З 6 16 км н/о +17.6 +14.1 80 +17 +17 1006.1 1003.4
18 12.08 З 5 17 км н/о +17.5 +14.1 80 +17 +17 1006.2 1003.5 +18.1 0.8
19 12.08 З 5 8000 м дымка н/о +17.0 +13.6 80 +16 +16 1006.4 1003.6
20 12.08 СЗ 5 21 км н/о +16.0 +13.0 82 +15 +15 1006.9 1004.1
21 12.08 СЗ 5 30 км н/о +15.2 +13.3 88 +14 +14 1007.3 1004.6
22 12.08 СЗ 5 30 км н/о +14.8 +13.3 91 +13 +13 1007.6 1004.9
23 12.08 СЗ 4 40 км н/о +14.7 +13.3 91 +13 +13 1008.0 1005.2
00 13.08 СЗ 4 35 км н/о +14.2 +13.0 92 +13 +13 1008.3 1005.5
01 13.08 СЗ 5 30 км н/о +14.3 +13.2 93 +13 +13 1008.2 1005.5
02 13.08 СЗ 5 19 км н/о +14.2 +13.2 94 +12 +12 1008.4 1005.7
03 13.08 СЗ 4 18 км н/о +14.1 +12.7 91 +13 +13 1008.5 1005.8
04 13.08 СЗ 3 16 км н/о +13.7 +12.2 91 +12 +12 1008.8 1006.0
05 13.08 З 6 8000 м морось {дымка} н/о +14.2 +12.8 91 +12 +12 1009.1 1006.3
06 13.08 З 5 13 км {морось, дымка} н/о +14.5 +12.3 87 +13 +13 1009.5 1006.7 +13.5 0.0
07 13.08 СЗ 4 23 км н/о +14.8 +12.6 87 +14 +14 1010.1 1007.3
08 13.08 СЗ 4 21 км н/о +14.2 +12.8 91 +13 +13 1010.6 1007.8
09 13.08 З 4 29 км н/о +15.2 +12.8 86 +14 +14 1011.0 1008.2
10 13.08 З 5 35 км н/о +15.6 +12.9 84 +14 +14 1011.1 1008.3
11 13.08 З 5 25 км слаб. ливневой дождь н/о +15.8 +13.8 88 +15 +15 1011.6 1008.9
12 13.08 З 8 9000 м в посл. час морось {ливн. осадки} н/о +15.5 +14.1 91 +14 +14 1011.9 1009.1 0.0
13 13.08 З 7 40 км н/о +16.3 +13.4 83 +15 +15 1012.3 1009.5
14 13.08 З 7 30 км н/о +16.2 +13.3 83 +15 +15 1012.5 1009.7
15 13.08 З 7 27 км н/о +16.1 +12.4 79 +15 +15 1012.4 1009.6
16 13.08 З 5 13 км н/о +15.3 +13.3 88 +14 +14 1012.5 1009.7
17 13.08 ЮЗ 6 16 км н/о +15.8 +13.6 87 +14 +14 1012.5 1009.7
18 13.08 ЮЗ 5 4200 м морось н/о +15.7 +14.4 92 +14 +14 1012.3 1009.5 +16.7 0.1
19 13.08 З 6 3700 м слаб. морось н/о +15.8 +14.9 94 +14 +14 1012.4 1009.7
20 13.08 З 5 12 км в посл. час морось н/о +15.6 +14.8 95 +14 +14 1012.8 1010.0
21 13.08 З 7 13 км {морось} н/о +15.4 +14.6 95 +14 +14 1013.0 1010.3
22 13.08 З 7 12 км н/о +15.0 +14.2 95 +13 +13 1013.6 1010.8
23 13.08 З 6 16 км н/о +15.3 +14.5 95 +14 +14 1013.7 1010.9
00 14.08 З 5 13 км {морось} н/о +15.5 +14.6 94 +14 +14 1013.9 1011.1 0.0
01 14.08 З 8 7000 м дымка н/о +15.6 +14.8 95 +14 +14 1013.9 1011.1
02 14.08 З 8 2700 м дымка н/о +15.6 +14.9 96 +14 +14 1013.5 1010.7
03 14.08 З 9 9000 м в посл. час морось {дымка} н/о +15.5 +14.6 94 +13 +13 1013.4 1010.7
04 14.08 ЮЗ 10 3900 м морось {дымка} н/о +15.6 +14.3 92 +13 +13 1013.4 1010.7
05 14.08 ЮЗ 10 6000 м слаб. ливневой дождь н/о +15.3 +14.4 94 +13 +13 1013.5 1010.7
06 14.08 ЮЗ 10 6000 м в посл. час морось {ливн. осадки} н/о +15.6 +14.6 94 +13 +13 1013.9 1011.1 +14.9 0.1
07 14.08 ЮЗ 10 9000 м в посл. час морось н/о +15.8 +14.8 94 +14 +14 1014.1 1011.3
08 14.08 ЮЗ 10 4900 м слаб. ливневой дождь н/о +15.7 +14.8 94 +13 +13 1014.1 1011.3
09 14.08 ЮЗ 11 4800 м слаб. ливневой дождь {морось} н/о +15.6 +14.8 95 +13 +13 1014.0 1011.2
10 14.08 ЮЗ 10 2900 м слаб. ливневой дождь н/о +15.7 +14.9 95 +13 +13 1014.3 1011.5
11 14.08 ЮЗ 10 2800 м слаб. ливневой дождь н/о +15.8 +15.0 95 +14 +14 1014.6 1011.8
12 14.08 ЮЗ 10 4700 м в посл. час морось {ливн. осадки} н/о +16.0 +15.2 95 +14 +14 1014.4 1011.6 0.9
13 14.08 ЮЗ 10 4200 м дымка н/о +16.1 +15.3 95 +14 +14 1014.6 1011.8
14 14.08 ЮЗ 10 4600 м слаб. ливневой дождь н/о +16.2 +15.5 96 +14 +14 1014.7 1011.9
15 14.08 ЮЗ 10 5000 м дымка {ливн. осадки} н/о +16.2 +15.5 96 +14 +14 1014.5 1011.8
16 14.08 ЮЗ 10 7000 м дымка н/о +16.4 +15.5 94 +15 +15 1014.2 1011.5
17 14.08 ЮЗ 11 2500 м сильн. морось н/о +16.4 +15.4 94 +14 +14 1013.8 1011.0
18 14.08 ЮЗ 10 3400 м слаб. ливневой дождь {морось} н/о +16.3 +15.5 95 +14 +14 1013.6 1010.9 +16.5 1
19 14.08 ЮЗ 10 4700 м дымка н/о +16.3 +15.5 95 +14 +14 1013.4 1010.6
20 14.08 ЮЗ 11 7000 м дымка н/о +16.3 +15.3 94 +14 +14 1013.4 1010.6
21 14.08 ЮЗ 11 2800 м слаб. ливневой дождь {дымка} н/о +16.2 +15.3 94 +14 +14 1012.9 1010.1
22 14.08 ЮЗ 11 3100 м морось н/о +16.1 +15.5 96 +14 +14 1012.4 1009.7
23 14.08 ЮЗ 11 1800 м морось н/о +16.2 +15.5 96 +14 +14 1012.1 1009.3
00 15.08 ЮЗ 10 2400 м морось {ливн. осадки} н/о +16.2 +15.6 96 +14 +14 1012.0 1009.2 1

 

Местоположение метеостанции Mace Head (Ирландия): широта 53.32 долгота -9.90 высота над уровнем моря 21 м.

В архиве по умолчанию представлена погода в Mace Head за последнюю неделю. Архивные данные за месяц целиком и за предыдущие месяцы, начиная с января 2011 года, Вы можете получить, выбрав интересующий диапазон дат из раскрывающегося списка и нажав кнопку "Ввод!".


*Определитесь, кто Вы:
робот инопланетянин человек

Внимание! Время в таблицах - всемирное. Для получения местного времени необходимо прибавить поправку, которая в Mace Head равна 0 ч.

Смотрите также архив погоды в соседних городах и на ближайших метеорологических станциях:

Погода в Claremorris (Ирландия) (74 км)
Погода в Shannon Airport (Ирландия) (96 км)
Погода в Knock Airport (Ирландия) (97 км)
Погода в Belmullet (Ирландия) (101 км)
Погода в Gurteen (Ирландия) (130 км)
Погода в Valentia Observatory (Ирландия) (156 км)
Погода в Finner (Ирландия) (170 км)
Погода в Mullingar (Ирландия) (170 км)
Погода в Thomastown (Великобритания) (189 км)
Погода в Ballyhaise, Cavan (Ирландия) (189 км)

Пояснения к столбцам:

Ветер - указаны скорость ветра в м/с - средняя за 10 мин, порывы в срок и между сроками (в фигурных скобках) и направление, откуда дует ветер: С - северный, СВ - северо-восточный, В - восточный, ЮВ - юго-восточный, Ю - южный, ЮЗ - юго-западный, З - западный, СЗ - северо-западный.
Видимость - горизонтальная дальность видимости в метрах или километрах. При видимости от 1 до 10 км при отсутствии осадков обычно наблюдается дымка, при ухудшении видимости до 1 км и менее - туман. В сухую погоду видимость может ухудшаться дымом, пылью или мглою.
Явления - указаны атмосферные явления, наблюдавшиеся в срок или в последний час перед сроком; фигурными скобками обозначены явления, наблюдавшиеся между сроками (за 1-3 часа до срока); квадратными скобками обозначены град или гололедные отложения с указанием их диаметра в мм.
Облачность - указаны через наклонную черту общая и нижняя облачность в баллах и высота нижней границы облаков в метрах; квадратными скобками обозначены формы облаков: Ci - перистые, Cs - перисто-слоистые, Cc - перисто-кучевые, Ac - высококучевые, As - высокослоистые, Sc - слоисто-кучевые, Ns - слоисто-дождевые, Cu - кучевые, Cb - кучево-дождевые. Подробнее классификацию облаков см. в Атласе облаков (PDF).
T - Температура воздуха - температура, измеренная на высоте 2 м над землей.
Td - Температура точки росы - температура, при понижении до которой содержащийся в воздухе водяной пар достигнет насыщения.
f - Относительная влажность воздуха - влажноcть воздуха, измеренная на высоте 2 м над землей.
Te - Эффективная температура - температура, которую ощущает одетый по сезону человек в тени. Характеристика душности погоды. При расчете учитывается влияние влажности воздуха и скорости ветра на теплоощущения человека.
Tes - Эффективная температура на солнце - температура, которую ощущает человек, с поправкой на солнечный нагрев. Характеристика знойности погоды. Зависит от высоты солнца над горизонтом, облачности и скорости ветра. Ночью, в пасмурную погоду, а также при ветре 12 м/с и более поправка равна нулю.
P - Атмосферное давление - приведенное к уровню моря атмосферное давление.
Po - Атмосферное давление - измеренное на уровне метеостанции атмосферное давление.
Tmin - Минимальная температура - минимум температуры воздуха на высоте 2 м над землей.
Tmax - Максимальная температура - максимум температуры воздуха на высоте 2 м над землей.
R - Количество осадков - Количество выпавших осадков за период времени, мм. При наведении курсора мыши на число - период времени, за который выпало указанное количество осадков.
R24 - Количество осадков - Количество выпавших осадков за 24 часа, мм.
S - Снежный покров - Высота снежного покрова, см. При наведении курсора мыши на число - состояние снежного покрова и степень покрытия местности в баллах.